ANA991 RJTT-RJBB

Flight info

Callsign ANA991
Flight time 0h 55m
Altitude 24000
Route LAXAS Y56 TOHME Y54 KOHWA Y544 DUBKA
Aircraft B738/M-SDE2E3FGHIRWXY/LB1

Departure

Time 2026-02-20 10:26
Airport Tokyo Haneda International Airport (RJTT)

Arrival

Time 2026-02-20 11:22
Airport Kansai International Airport (RJBB)
Time Latitude Longitude Altitude Speed Heading
2026-02-20 09:51 35.55521 139.78668 23 ft 0 kts 148°
2026-02-20 10:15 35.55521 139.78667 23 ft 1 kts 148°
2026-02-20 10:15 35.55534 139.78658 30 ft 3 kts 156°
2026-02-20 10:15 35.55553 139.78650 23 ft 3 kts 171°
2026-02-20 10:16 35.55573 139.78649 24 ft 3 kts 192°
2026-02-20 10:16 35.55591 139.78656 24 ft 3 kts 210°
2026-02-20 10:16 35.55608 139.78670 25 ft 3 kts 214°
2026-02-20 10:16 35.55625 139.78682 24 ft 3 kts 199°
2026-02-20 10:17 35.55644 139.78688 24 ft 3 kts 180°
2026-02-20 10:17 35.55664 139.78686 24 ft 3 kts 162°
2026-02-20 10:17 35.55683 139.78676 26 ft 3 kts 151°
2026-02-20 10:17 35.55699 139.78665 24 ft 2 kts 152°
2026-02-20 10:18 35.55702 139.78663 27 ft 0 kts 153°
2026-02-20 10:20 35.55693 139.78669 25 ft 3 kts 153°
2026-02-20 10:20 35.55662 139.78698 24 ft 8 kts 127°
2026-02-20 10:20 35.55662 139.78779 23 ft 12 kts 61°
2026-02-20 10:20 35.55707 139.78874 24 ft 13 kts 60°
2026-02-20 10:21 35.55748 139.78971 23 ft 13 kts 83°
2026-02-20 10:21 35.55688 139.79039 23 ft 12 kts 151°
2026-02-20 10:21 35.55613 139.79091 23 ft 12 kts 150°
2026-02-20 10:21 35.55537 139.79145 22 ft 14 kts 149°
2026-02-20 10:22 35.55447 139.79210 22 ft 16 kts 150°
2026-02-20 10:22 35.55339 139.79287 23 ft 19 kts 150°
2026-02-20 10:22 35.55218 139.79374 22 ft 22 kts 149°
2026-02-20 10:22 35.55083 139.79469 24 ft 23 kts 151°
2026-02-20 10:23 35.54947 139.79563 22 ft 22 kts 149°
2026-02-20 10:23 35.54820 139.79656 22 ft 21 kts 149°
2026-02-20 10:23 35.54692 139.79747 23 ft 21 kts 150°
2026-02-20 10:23 35.54664 139.79767 22 ft 20 kts 150°
2026-02-20 10:24 35.54547 139.79850 23 ft 20 kts 150°
2026-02-20 10:24 35.54429 139.79932 22 ft 19 kts 150°
2026-02-20 10:24 35.54315 139.80013 22 ft 19 kts 150°
2026-02-20 10:24 35.54206 139.80094 24 ft 17 kts 138°
2026-02-20 10:25 35.54216 139.80206 22 ft 12 kts 62°
2026-02-20 10:25 35.54259 139.80288 23 ft 11 kts 33°
2026-02-20 10:25 35.54303 139.80275 25 ft 4 kts 329°
2026-02-20 10:25 35.54452 139.80169 24 ft 55 kts 330°
2026-02-20 10:26 35.54961 139.79809 23 ft 112 kts 330°
2026-02-20 10:26 35.55779 139.79236 33 ft 156 kts 330°
2026-02-20 10:26 35.56759 139.78542 440 ft 164 kts 330°
2026-02-20 10:26 35.57768 139.77863 1017 ft 167 kts 339°
2026-02-20 10:27 35.58911 139.77897 1500 ft 171 kts 31°
2026-02-20 10:27 35.59627 139.79058 1808 ft 185 kts 79°
2026-02-20 10:27 35.59516 139.80670 2097 ft 203 kts 111°
2026-02-20 10:27 35.58905 139.82315 2271 ft 222 kts 115°
2026-02-20 10:28 35.58231 139.84080 2604 ft 233 kts 115°
2026-02-20 10:28 35.57529 139.85949 2867 ft 250 kts 115°
2026-02-20 10:28 35.56797 139.87930 3392 ft 257 kts 115°
2026-02-20 10:28 35.56066 139.89929 4122 ft 256 kts 115°
2026-02-20 10:29 35.55338 139.91926 4842 ft 257 kts 115°
2026-02-20 10:29 35.54402 139.93793 5405 ft 261 kts 138°
2026-02-20 10:29 35.52823 139.94868 5942 ft 264 kts 168°
2026-02-20 10:29 35.50990 139.94943 6564 ft 266 kts 189°
2026-02-20 10:30 35.49161 139.94542 7190 ft 268 kts 193°
2026-02-20 10:30 35.47323 139.94075 7841 ft 271 kts 193°
2026-02-20 10:30 35.45541 139.93333 8472 ft 273 kts 214°
2026-02-20 10:30 35.44128 139.91839 9213 ft 273 kts 227°
2026-02-20 10:31 35.42816 139.90097 9965 ft 276 kts 229°
2026-02-20 10:31 35.41509 139.88319 10408 ft 289 kts 229°
2026-02-20 10:31 35.40133 139.86449 10576 ft 310 kts 229°
2026-02-20 10:31 35.38637 139.84432 10743 ft 331 kts 229°
2026-02-20 10:32 35.37038 139.82292 10998 ft 346 kts 228°
2026-02-20 10:32 35.35397 139.80111 11730 ft 348 kts 229°
2026-02-20 10:32 35.33745 139.77920 12379 ft 352 kts 228°
2026-02-20 10:32 35.32077 139.75707 13071 ft 356 kts 228°
2026-02-20 10:33 35.30351 139.73516 13828 ft 358 kts 225°
2026-02-20 10:33 35.28479 139.71501 14562 ft 360 kts 222°
2026-02-20 10:33 35.26544 139.69538 15306 ft 364 kts 221°
2026-02-20 10:33 35.24582 139.67560 16099 ft 366 kts 222°
2026-02-20 10:34 35.22616 139.65559 16777 ft 370 kts 222°
2026-02-20 10:34 35.20640 139.63526 17403 ft 373 kts 222°
2026-02-20 10:34 35.18655 139.61468 18039 ft 375 kts 222°
2026-02-20 10:34 35.16662 139.59395 18638 ft 378 kts 223°
2026-02-20 10:35 35.14653 139.57303 19198 ft 380 kts 223°
2026-02-20 10:35 35.12641 139.55209 19777 ft 381 kts 223°
2026-02-20 10:35 35.10619 139.53107 20343 ft 382 kts 223°
2026-02-20 10:35 35.08654 139.50919 20863 ft 383 kts 231°
2026-02-20 10:36 35.07249 139.48173 21373 ft 383 kts 247°
2026-02-20 10:36 35.06491 139.45062 21937 ft 384 kts 257°
2026-02-20 10:36 35.05972 139.41864 22462 ft 386 kts 258°
2026-02-20 10:36 35.05473 139.38632 22945 ft 388 kts 258°
2026-02-20 10:37 35.04967 139.35408 23576 ft 386 kts 258°
2026-02-20 10:37 35.04446 139.32202 24077 ft 385 kts 257°
2026-02-20 10:37 35.03915 139.29015 24098 ft 381 kts 257°
2026-02-20 10:37 35.03381 139.25851 24124 ft 381 kts 257°
2026-02-20 10:38 35.02846 139.22682 24122 ft 382 kts 257°
2026-02-20 10:38 35.02316 139.19506 24129 ft 382 kts 257°
2026-02-20 10:38 35.01797 139.16374 24128 ft 382 kts 257°
2026-02-20 10:38 35.01263 139.13154 24126 ft 382 kts 257°
2026-02-20 10:39 35.00735 139.09979 24130 ft 382 kts 257°
2026-02-20 10:39 35.00204 139.06795 24125 ft 383 kts 258°
2026-02-20 10:39 34.99680 139.03658 24129 ft 383 kts 258°
2026-02-20 10:39 34.99138 139.00422 24127 ft 384 kts 258°
2026-02-20 10:40 34.98679 138.97231 24116 ft 385 kts 263°
2026-02-20 10:40 34.98461 138.93976 24124 ft 385 kts 265°
2026-02-20 10:40 34.98307 138.90722 24122 ft 385 kts 265°
2026-02-20 10:40 34.98165 138.87464 24133 ft 384 kts 265°
2026-02-20 10:41 34.98018 138.84209 24115 ft 385 kts 266°
2026-02-20 10:41 34.97863 138.80950 24129 ft 385 kts 265°
2026-02-20 10:41 34.97699 138.77686 24122 ft 386 kts 265°
2026-02-20 10:41 34.97530 138.74418 24118 ft 387 kts 265°
2026-02-20 10:42 34.97356 138.71145 24115 ft 387 kts 265°
2026-02-20 10:42 34.97179 138.67877 24118 ft 387 kts 265°
2026-02-20 10:42 34.97002 138.64607 24114 ft 387 kts 265°
2026-02-20 10:42 34.96823 138.61342 24113 ft 386 kts 265°
2026-02-20 10:43 34.96643 138.58074 24120 ft 386 kts 265°
2026-02-20 10:43 34.96281 138.51545 24120 ft 386 kts 265°
2026-02-20 10:43 34.96099 138.48277 24112 ft 387 kts 266°
2026-02-20 10:44 34.95915 138.44998 24128 ft 388 kts 266°
2026-02-20 10:44 34.95730 138.41706 24126 ft 390 kts 266°
2026-02-20 10:44 34.95543 138.38407 24109 ft 392 kts 266°
2026-02-20 10:44 34.95355 138.35091 24115 ft 392 kts 266°
2026-02-20 10:45 34.95165 138.31772 24111 ft 393 kts 266°
2026-02-20 10:45 34.94975 138.28449 24118 ft 393 kts 266°
2026-02-20 10:45 34.94848 138.26246 24114 ft 393 kts 266°
2026-02-20 10:45 34.94656 138.22925 24110 ft 393 kts 266°
2026-02-20 10:46 34.94464 138.19611 24106 ft 392 kts 266°
2026-02-20 10:46 34.94270 138.16287 24110 ft 392 kts 266°
2026-02-20 10:46 34.94076 138.12977 24098 ft 391 kts 266°
2026-02-20 10:46 34.93884 138.09677 24107 ft 391 kts 266°
2026-02-20 10:47 34.93690 138.06374 24107 ft 390 kts 266°
2026-02-20 10:47 34.93496 138.03083 24103 ft 389 kts 266°
2026-02-20 10:47 34.93302 137.99793 24111 ft 388 kts 266°
2026-02-20 10:47 34.93108 137.96514 24118 ft 388 kts 266°
2026-02-20 10:48 34.92912 137.93228 24106 ft 389 kts 266°
2026-02-20 10:48 34.92715 137.89945 24102 ft 388 kts 266°
2026-02-20 10:48 34.92518 137.86664 24100 ft 388 kts 266°
2026-02-20 10:48 34.92320 137.83389 24112 ft 388 kts 266°
2026-02-20 10:49 34.92123 137.80113 24109 ft 388 kts 266°
2026-02-20 10:49 34.91934 137.76838 24113 ft 388 kts 266°
2026-02-20 10:49 34.91746 137.73565 24116 ft 387 kts 266°
2026-02-20 10:49 34.91556 137.70289 24119 ft 388 kts 266°
2026-02-20 10:50 34.91170 137.67040 24109 ft 389 kts 258°
2026-02-20 10:50 34.90358 137.63899 24123 ft 389 kts 251°
2026-02-20 10:50 34.89394 137.60815 24110 ft 390 kts 251°
2026-02-20 10:50 34.88434 137.57725 24110 ft 390 kts 251°
2026-02-20 10:51 34.87487 137.54631 24122 ft 390 kts 251°
2026-02-20 10:51 34.86548 137.51535 24108 ft 390 kts 251°
2026-02-20 10:51 34.85623 137.48476 24107 ft 390 kts 251°
2026-02-20 10:51 34.84698 137.45373 24121 ft 390 kts 252°
2026-02-20 10:52 34.83806 137.42263 24109 ft 390 kts 253°
2026-02-20 10:52 34.82924 137.39145 24107 ft 389 kts 253°
2026-02-20 10:52 34.82044 137.36029 24119 ft 389 kts 253°
2026-02-20 10:52 34.81164 137.32924 24117 ft 388 kts 253°
2026-02-20 10:53 34.80282 137.29822 24113 ft 388 kts 253°
2026-02-20 10:53 34.79398 137.26726 24112 ft 387 kts 253°
2026-02-20 10:53 34.78514 137.23637 24116 ft 387 kts 253°
2026-02-20 10:53 34.77627 137.20544 24111 ft 387 kts 253°
2026-02-20 10:54 34.76742 137.17458 24116 ft 386 kts 253°
2026-02-20 10:54 34.75856 137.14376 24116 ft 386 kts 253°
2026-02-20 10:54 34.74965 137.11274 24120 ft 391 kts 252°
2026-02-20 10:54 34.74061 137.08134 24122 ft 396 kts 252°
2026-02-20 10:55 34.73151 137.04977 24105 ft 394 kts 252°
2026-02-20 10:55 34.72245 137.01839 24123 ft 393 kts 252°
2026-02-20 10:55 34.71338 136.98702 24102 ft 393 kts 252°
2026-02-20 10:55 34.70409 136.95580 24106 ft 392 kts 251°
2026-02-20 10:56 34.69253 136.92574 24116 ft 393 kts 246°
2026-02-20 10:56 34.67996 136.89625 24111 ft 393 kts 245°
2026-02-20 10:56 34.66715 136.86685 24123 ft 393 kts 245°
2026-02-20 10:56 34.65435 136.83750 24126 ft 394 kts 245°
2026-02-20 10:57 34.64158 136.80805 24121 ft 394 kts 245°
2026-02-20 10:57 34.62888 136.77855 24122 ft 394 kts 245°
2026-02-20 10:57 34.61623 136.74904 24120 ft 394 kts 246°
2026-02-20 10:57 34.60362 136.71953 24123 ft 394 kts 246°
2026-02-20 10:58 34.59103 136.69004 24121 ft 393 kts 246°
2026-02-20 10:58 34.57845 136.66057 24123 ft 393 kts 246°
2026-02-20 10:58 34.56588 136.63115 24122 ft 393 kts 246°
2026-02-20 10:58 34.55331 136.60176 24122 ft 392 kts 246°
2026-02-20 10:59 34.54073 136.57235 24120 ft 392 kts 246°
2026-02-20 10:59 34.52816 136.54302 24118 ft 392 kts 246°
2026-02-20 10:59 34.51559 136.51370 24126 ft 392 kts 246°
2026-02-20 10:59 34.50319 136.48485 24122 ft 379 kts 246°
2026-02-20 11:00 34.45442 136.37140 22729 ft 354 kts 246°
2026-02-20 11:01 34.44304 136.34497 22275 ft 351 kts 247°
2026-02-20 11:01 34.43180 136.31891 21876 ft 347 kts 247°
2026-02-20 11:01 34.42065 136.29306 21439 ft 345 kts 246°
2026-02-20 11:01 34.40957 136.26740 21040 ft 343 kts 246°
2026-02-20 11:02 34.39854 136.24188 20626 ft 341 kts 246°
2026-02-20 11:02 34.38757 136.21649 20229 ft 339 kts 246°
2026-02-20 11:02 34.37666 136.19126 19813 ft 338 kts 246°
2026-02-20 11:02 34.36579 136.16617 19397 ft 336 kts 246°
2026-02-20 11:03 34.35516 136.14121 19020 ft 334 kts 249°
2026-02-20 11:03 34.34743 136.11498 18612 ft 329 kts 259°
2026-02-20 11:03 34.34252 136.08812 18235 ft 326 kts 260°
2026-02-20 11:03 34.33785 136.06124 17779 ft 325 kts 261°
2026-02-20 11:04 34.33479 136.04357 17535 ft 323 kts 260°
2026-02-20 11:04 34.32055 135.96326 16331 ft 317 kts 260°
2026-02-20 11:05 34.31588 135.93730 15970 ft 315 kts 260°
2026-02-20 11:05 34.31122 135.91142 15570 ft 314 kts 261°
2026-02-20 11:05 34.30656 135.88568 15197 ft 313 kts 261°
2026-02-20 11:05 34.30194 135.86007 14844 ft 311 kts 260°
2026-02-20 11:06 34.29729 135.83455 14470 ft 310 kts 261°
2026-02-20 11:06 34.29265 135.80910 14088 ft 310 kts 261°
2026-02-20 11:06 34.28799 135.78358 13582 ft 313 kts 261°
2026-02-20 11:06 34.28334 135.75815 13132 ft 313 kts 261°
2026-02-20 11:07 34.27863 135.73245 12698 ft 313 kts 261°
2026-02-20 11:07 34.27393 135.70684 12315 ft 311 kts 261°
2026-02-20 11:07 34.26927 135.68141 11958 ft 309 kts 261°
2026-02-20 11:07 34.26463 135.65616 11586 ft 308 kts 261°
2026-02-20 11:08 34.26001 135.63099 11215 ft 306 kts 261°
2026-02-20 11:08 34.25546 135.60585 10814 ft 305 kts 261°
2026-02-20 11:08 34.25089 135.58095 10550 ft 301 kts 261°
2026-02-20 11:08 34.24638 135.55668 10423 ft 292 kts 261°
2026-02-20 11:09 34.24198 135.53309 10273 ft 283 kts 261°
2026-02-20 11:09 34.23773 135.51024 10172 ft 275 kts 261°
2026-02-20 11:09 34.23363 135.48804 10063 ft 267 kts 261°
2026-02-20 11:09 34.22963 135.46643 9865 ft 262 kts 261°
2026-02-20 11:10 34.22566 135.44507 9595 ft 259 kts 261°
2026-02-20 11:10 34.22173 135.42387 9315 ft 258 kts 261°
2026-02-20 11:10 34.21783 135.40285 9051 ft 255 kts 261°
2026-02-20 11:10 34.21398 135.38208 8804 ft 252 kts 260°
2026-02-20 11:11 34.21017 135.36151 8550 ft 251 kts 260°
2026-02-20 11:11 34.20636 135.34097 8273 ft 250 kts 260°
2026-02-20 11:11 34.20258 135.32057 8009 ft 248 kts 260°
2026-02-20 11:11 34.19880 135.30024 7746 ft 248 kts 260°
2026-02-20 11:12 34.19504 135.28003 7489 ft 246 kts 260°
2026-02-20 11:12 34.19129 135.25988 7233 ft 245 kts 260°
2026-02-20 11:12 34.18755 135.23980 6966 ft 245 kts 260°
2026-02-20 11:12 34.18382 135.21980 6709 ft 244 kts 260°
2026-02-20 11:13 34.18010 135.19984 6450 ft 243 kts 260°
2026-02-20 11:13 34.17639 135.17998 6178 ft 242 kts 260°
2026-02-20 11:13 34.17268 135.16021 5899 ft 241 kts 260°
2026-02-20 11:13 34.16923 135.14050 5649 ft 238 kts 266°
2026-02-20 11:14 34.17171 135.12124 5385 ft 232 kts 297°
2026-02-20 11:14 34.18073 135.10578 5226 ft 226 kts 315°
2026-02-20 11:14 34.19263 135.09387 5133 ft 219 kts 320°
2026-02-20 11:14 34.20434 135.08268 5042 ft 209 kts 320°
2026-02-20 11:15 34.21537 135.07205 4950 ft 197 kts 320°
2026-02-20 11:15 34.22574 135.06198 4835 ft 188 kts 320°
2026-02-20 11:15 34.23588 135.05210 4760 ft 187 kts 320°
2026-02-20 11:15 34.24603 135.04218 4558 ft 185 kts 319°
2026-02-20 11:16 34.25584 135.03260 4358 ft 178 kts 320°
2026-02-20 11:16 34.26683 135.02662 4120 ft 175 kts 354°
2026-02-20 11:16 34.27848 135.03078 3971 ft 187 kts 36°
2026-02-20 11:16 34.28780 135.04192 3780 ft 190 kts 39°
2026-02-20 11:17 34.29105 135.04560 3691 ft 189 kts 38°
2026-02-20 11:18 34.33748 135.11017 2591 ft 163 kts 48°
2026-02-20 11:18 34.34217 135.11717 2438 ft 161 kts 48°
2026-02-20 11:18 34.35132 135.13083 2134 ft 155 kts 49°
2026-02-20 11:19 34.35814 135.14099 1938 ft 156 kts 50°
2026-02-20 11:19 34.36501 135.15124 1717 ft 156 kts 50°
2026-02-20 11:19 34.37185 135.16144 1493 ft 156 kts 50°
2026-02-20 11:19 34.37864 135.17157 1272 ft 154 kts 50°
2026-02-20 11:20 34.38536 135.18158 1061 ft 152 kts 50°
2026-02-20 11:20 34.38984 135.18826 938 ft 151 kts 50°
2026-02-20 11:20 34.39857 135.20127 643 ft 150 kts 50°
2026-02-20 11:20 34.40297 135.20788 520 ft 148 kts 50°
2026-02-20 11:21 34.41158 135.22067 241 ft 147 kts 50°
2026-02-20 11:21 34.41590 135.22714 97 ft 146 kts 50°
2026-02-20 11:21 34.42217 135.23640 13 ft 131 kts 51°
2026-02-20 11:21 34.42657 135.24297 13 ft 69 kts 51°
2026-02-20 11:22 34.42836 135.24562 13 ft 24 kts 50°
2026-02-20 11:22 34.42940 135.24712 13 ft 23 kts 50°
2026-02-20 11:22 34.43064 135.24827 15 ft 22 kts 32°
2026-02-20 11:22 34.43176 135.24879 14 ft 15 kts 18°
2026-02-20 11:23 34.43258 135.24867 18 ft 14 kts 272°
2026-02-20 11:23 34.43207 135.24769 18 ft 14 kts 230°
2026-02-20 11:23 34.43149 135.24682 18 ft 13 kts 232°
2026-02-20 11:23 34.43093 135.24598 18 ft 13 kts 231°
2026-02-20 11:24 34.43063 135.24508 18 ft 12 kts 295°
2026-02-20 11:24 34.43130 135.24440 19 ft 12 kts 321°
2026-02-20 11:24 34.43173 135.24371 18 ft 9 kts 295°
2026-02-20 11:24 34.43210 135.24320 20 ft 6 kts 322°
2026-02-20 11:25 34.43229 135.24302 19 ft 3 kts 321°
2026-02-20 11:25 34.43231 135.24301 18 ft 0 kts 321°